BUS_NAME,NETWORK_OPERATOR_ID,CONNECTION_TYPE,PARTY,UNIT_OF_MEASURE,FLOW,STATUS,MD_DATE,TP1,TP2,TP3,TP4,TP5,TP6,TP7,TP8,TP9,TP10,TP11,TP12,TP13,TP14,TP15,TP16,TP17,TP18,TP19,TP20,TP21,TP22,TP23,TP24,TP25,TP26,TP27,TP28,TP29,TP30,TP31,TP32,TP33,TP34,TP35,TP36,TP37,TP38,TP39,TP40,TP41,TP42,TP43,TP44,TP45,TP46,TP47,TP48,TP49,TP50,CHECKSUM
WTK0111,ECNZ,GG,ECNZ,kWh,I,F,01/03/1999,27140,27570,27120,26220,27230,27380,29680,29950,30050,29730,29750,31080,31980,33660,34500,33500,37610,37200,39460,39750,37760,37060,37900,40100,39410,39530,39320,39200,39390,40370,40070,40180,39910,39290,39480,39360,40350,39780,39940,40030,39580,39910,37160,37480,37040,37480,36930,37350,1721920
WTK0111,ECNZ,GG,ECNZ,kWh,I,F,02/03/1999,38970,40470,39510,38390,37670,37760,36670,36720,36790,36510,36790,36710,36660,36820,36900,36740,36730,38180,39470,39680,41740,41760,41790,41690,41790,41990,41910,41780,42090,42040,41910,41850,41640,41850,41860,42260,41950,41780,41070,40050,39520,39580,37280,37300,37200,37070,36820,37320,1891030
WTK0111,ECNZ,GG,ECNZ,kWh,I,F,03/03/1999,36650,37380,38170,36760,35630,35150,34660,34760,34810,34850,33650,31930,32540,31980,32040,32290,32450,32170,32490,31920,32130,32130,32850,32490,31730,32840,31830,32810,32380,32110,31960,32130,32060,32500,32420,31830,32370,32160,31700,32520,32710,32040,31970,32880,32260,32940,33000,32520,1587550
WTK0111,ECNZ,GG,ECNZ,kWh,I,F,04/03/1999,32750,32770,32090,32470,31860,32080,32490,31860,32780,32450,33960,34700,37910,37970,39660,40430,42090,41960,42710,41500,44020,44480,44820,45150,44400,44460,44780,44350,45010,45000,44900,44680,45100,44850,44050,45100,44670,44920,43680,44700,45730,45380,44230,45340,43930,45240,43920,45020,1968400
WTK0111,ECNZ,GG,ECNZ,kWh,I,F,05/03/1999,45170,44620,44150,44930,45200,45230,44870,44380,44440,44780,45070,44650,44690,44580,44600,44240,44710,44700,44930,45090,44600,44240,44140,44370,44650,45030,45200,44470,44160,44930,44590,44630,44860,44900,44570,43880,45190,44800,43000,42780,40640,39490,36890,37290,36150,37350,38530,39640,2090000
WTK0111,ECNZ,GG,ECNZ,kWh,I,F,06/03/1999,40320,38190,36280,40150,40010,40180,40920,40550,39660,39200,39220,39650,36790,36200,35230,34890,34420,33780,32180,32040,32680,32750,31840,32240,32460,32110,32580,31750,32010,33050,32690,32150,33220,32110,32080,31980,32450,32310,31750,32170,33060,32200,31630,32320,32270,32930,32010,32120,1654780
WTK0111,ECNZ,GG,ECNZ,kWh,I,F,07/03/1999,32310,32260,32440,30910,29800,29800,28130,27290,27170,27350,27350,27550,27000,27570,26990,27520,27880,27620,26620,28050,27470,28820,29620,31790,32760,31060,32340,32880,32020,31770,32980,32660,32520,32470,30820,29160,29910,29740,29940,31670,32610,33990,34420,34900,37010,37910,37350,38370,1480570
WTK0111,ECNZ,GG,ECNZ,kWh,I,F,08/03/1999,37260,37470,37060,35370,32950,32670,29820,30110,30160,29880,29940,29450,29340,31750,31930,32660,31640,31350,32500,32760,32300,32330,32530,32990,32260,32310,31730,32430,32260,31520,29890,30200,28900,27810,27300,27790,27600,27010,27670,29330,29860,30280,32030,32290,32150,32210,32220,32510,1505780
WTK0111,ECNZ,GG,ECNZ,kWh,I,F,09/03/1999,30340,29620,28860,27480,27430,27280,27490,26940,27040,27260,27220,27240,27000,27490,27260,27120,27160,26430,26910,26680,28980,29460,29480,29530,29520,29580,29960,29370,29130,29050,29560,30750,31750,31980,31730,32420,31540,31820,32040,32030,31710,31880,31860,32050,31840,31950,31980,31780,1414980
WTK0111,ECNZ,GG,ECNZ,kWh,I,F,10/03/1999,29480,29670,28260,27170,26300,24980,24460,23910,22290,21810,22250,21870,22000,22000,22010,24420,24520,24630,24250,23720,22430,22260,23690,24600,24440,24960,24530,24400,26790,27510,27850,29740,29490,29980,29860,29370,29820,29590,32130,33540,33140,34270,34280,35130,34280,35190,37560,37340,1318170
WTK0111,ECNZ,GG,ECNZ,kWh,I,F,11/03/1999,36620,36840,37940,36990,37080,37710,37180,36890,37540,37120,37190,37450,37260,37290,37320,37220,37320,37490,37010,36820,36930,37540,37330,37090,37320,37260,37190,37500,37370,37340,37330,36860,37250,37610,37340,36870,37240,37340,37690,36960,37280,37040,37040,36620,37650,37530,37740,37420,1787960
WTK0111,ECNZ,GG,ECNZ,kWh,I,F,12/03/1999,36550,37360,37740,37030,37140,37440,37250,37050,37180,37380,37220,37200,37200,37500,37620,37270,36880,37180,37480,37600,36720,37110,37270,37600,37010,36950,37550,37550,37610,37260,37390,36960,37400,37230,36790,38660,38330,37130,37100,38000,37240,36880,37670,37260,36850,37540,37200,37770,1791300
WTK0111,ECNZ,GG,ECNZ,kWh,I,F,13/03/1999,37270,36800,37230,37370,37830,37020,37160,37220,35910,35160,34800,33290,32140,32640,31890,31300,29720,29770,29690,29740,29550,29900,29800,28660,27630,27120,27370,27370,26960,27540,27160,27820,27770,27190,27200,27260,27190,27530,27280,27520,27350,26970,27360,27520,26980,27670,27560,27600,1458780
WTK0111,ECNZ,GG,ECNZ,kWh,I,F,14/03/1999,27110,27050,27780,27270,27520,27460,26870,27330,27580,27490,27160,27500,26940,27230,27320,27240,27690,27520,27560,26990,27260,26640,24860,25000,24600,24590,25020,24860,24740,25460,24170,24610,25600,25070,24490,24930,25060,25210,24970,24820,24410,24730,24270,25130,24640,25190,25290,25090,1247320
WTK0111,ECNZ,GG,ECNZ,kWh,I,F,15/03/1999,24640,24460,24750,23510,22850,22680,22410,22150,22100,22640,23030,22960,25410,25060,24390,24620,25030,24640,25020,25120,24340,24670,25200,24360,24510,25220,24360,24810,25260,24870,24320,25100,24670,24770,26490,27190,26630,29150,29710,30110,29460,29540,29520,30190,30660,31910,31520,30120,1236130
WTK0111,ECNZ,GG,ECNZ,kWh,I,F,16/03/1999,28120,27030,27670,25130,25300,25050,24920,24730,24720,24960,26600,26840,28910,29680,29260,29080,31710,31980,32270,32290,31560,32530,32130,31880,31650,31940,32530,31570,32160,32430,32160,32850,34560,34990,34350,34750,34550,34480,33860,35140,37170,37600,36720,36900,37370,36960,35120,34580,1510740
WTK0111,ECNZ,GG,ECNZ,kWh,I,F,17/03/1999,33870,31600,32010,32810,32550,32060,31330,30050,29690,29470,29650,29710,30640,32500,32410,34000,34680,34810,34800,34940,34740,34920,34430,34270,34580,35490,34470,34470,34720,34630,35040,35070,35110,36510,37790,37040,37090,37440,36750,37940,36900,36340,37180,37030,37360,37080,34980,34650,1647600
WTK0111,ECNZ,GG,ECNZ,kWh,I,F,18/03/1999,35980,33250,31820,32330,31270,30330,30190,29290,29460,28940,30230,29560,29600,31460,32130,29800,29560,29670,29370,29180,30250,29820,29610,29420,29690,29970,29620,29440,31510,32720,32300,32480,33960,34520,34550,34610,34930,36460,37420,37430,37860,36910,36700,37540,36980,37430,37110,37250,1561910
WTK0111,ECNZ,GG,ECNZ,kWh,I,F,19/03/1999,37490,37290,37250,37240,37640,37560,37470,37430,37160,36460,34450,34500,34390,34410,34420,34680,34260,33940,34460,33620,34850,34800,34850,34760,34480,34630,33710,32130,32300,31930,31190,30190,29480,29190,29170,29470,27460,27300,27510,28220,27820,27470,26930,27750,27130,27340,27460,27970,1563610
WTK0111,ECNZ,GG,ECNZ,kWh,I,F,20/03/1999,27300,26860,26950,27750,27220,27310,27690,27730,27640,27340,27070,27200,27640,27290,27790,26830,27980,27680,27530,29550,28400,29740,30050,29890,29900,30000,31660,32010,32050,32630,34820,35140,35280,34710,33980,35630,35610,34270,33980,35480,35110,34550,34390,35370,34330,34740,34770,35280,1484120
WTK0111,ECNZ,GG,ECNZ,kWh,I,F,21/03/1999,35470,35930,36810,37520,37570,37230,37280,37220,37370,37350,37110,37470,37170,35790,34960,34650,34960,34760,34550,34540,35160,34420,34830,34810,34700,34910,34710,34750,35150,34800,34740,35000,35100,35130,34790,34770,34380,36460,37030,37400,37250,37100,37280,37780,35810,34660,35130,34510,37510,37300,1793080
WTK0111,ECNZ,GG,ECNZ,kWh,I,F,22/03/1999,32830,32790,32650,32340,30560,30190,28730,27030,28820,29670,29830,31830,32120,33960,34470,34840,35300,35520,34420,36660,37160,38060,39630,40110,39950,39930,39610,39490,39550,39350,39300,39170,36930,36450,34830,34290,31990,31940,31800,31730,31980,31760,31800,32120,31890,32080,32150,32110,1641720
WTK0111,ECNZ,GG,ECNZ,kWh,I,F,23/03/1999,32520,31480,29700,29950,29670,30000,29650,29850,30340,29630,29970,29810,30000,29860,29540,31250,32510,32300,32470,32550,32030,32550,32500,32650,33290,33720,34030,33370,32180,32580,32180,32370,32330,33490,34680,34460,35020,35010,34370,34970,35000,34410,34660,34890,34830,34920,34860,35150,1559550
WTK0111,ECNZ,GG,ECNZ,kWh,I,F,24/03/1999,34850,34540,35060,34630,34870,34880,34780,34540,35220,34430,34980,34580,34910,34950,34710,34740,34520,35140,35070,34890,34380,34490,35070,34800,34950,34540,34920,34870,34950,34690,35230,35040,34610,34860,34690,35040,34250,34980,34570,34770,34650,34740,33510,32610,32080,32520,32240,32410,1656750
WTK0111,ECNZ,GG,ECNZ,kWh,I,F,25/03/1999,32400,31940,29950,29750,29830,29960,29930,30020,29810,29820,29610,29740,29980,30020,29730,29750,29660,29430,28830,27240,27310,27330,27490,27570,27330,26780,28130,27060,27560,26740,27130,27390,27830,27900,27260,26830,27400,28060,26620,26820,27890,27400,27140,27820,27150,27390,27270,25460,1361460
WTK0111,ECNZ,GG,ECNZ,kWh,I,F,26/03/1999,25030,22780,22460,22340,22850,22000,22210,22850,22100,22500,22510,22460,22190,23030,24290,24350,24540,23500,24660,24560,23020,22940,22390,19950,19670,18580,19910,19460,19610,19980,20010,20620,20100,18910,19580,19660,19910,20700,19620,19840,20170,19840,19430,20440,19700,19900,19890,20310,1027350
WTK0111,ECNZ,GG,ECNZ,kWh,I,F,27/03/1999,19290,19730,20330,19760,19970,19800,19980,19850,20180,19550,20150,21850,22250,22440,22720,23170,22640,22550,22340,22320,22250,22370,22110,22270,22330,22190,19780,19960,19650,19920,18980,17390,18080,16890,17520,17570,17000,17840,16840,16810,17230,17860,17900,17710,17430,17460,16840,17340,948390
WTK0111,ECNZ,GG,ECNZ,kWh,I,F,28/03/1999,17650,17180,17110,17670,17300,17510,17270,17530,17410,17320,17510,17590,17400,17600,17180,17470,17550,17100,17500,17290,17720,17130,17500,17200,17460,17660,17620,16950,17210,17670,17460,17680,17250,17290,17500,17370,17230,17690,17110,16860,17330,17360,16910,17230,17180,17310,16910,16990,832920
WTK0111,ECNZ,GG,ECNZ,kWh,I,F,29/03/1999,16790,16990,17080,16590,16660,17040,17250,17230,16700,16860,17130,16600,17050,16950,16820,16440,17550,19330,19130,19330,19430,19580,20280,21660,21540,22240,22250,24170,24110,24600,24510,26830,27130,28060,29140,29350,29470,29560,29240,28900,29490,29190,27020,27520,25030,24330,24790,25000,1059940
WTK0111,ECNZ,GG,ECNZ,kWh,I,F,30/03/1999,24600,24750,23080,22080,22500,22500,22450,21860,22040,22210,22140,22200,22120,22180,21580,23680,24090,23940,24250,26350,27650,27150,28000,27260,26920,27150,28290,27010,28540,32400,32420,32470,32340,32840,32830,31890,32050,31990,31660,31730,33220,33490,31850,32880,32020,31250,29610,29740,1317250
WTK0111,ECNZ,GG,ECNZ,kWh,I,F,31/03/1999,27140,28150,27250,26340,24480,24830,23580,22390,22640,22660,22260,22380,23790,24760,25540,27340,26790,27310,25590,24800,25160,24300,24730,22970,22320,21960,22230,22070,22150,22680,21650,23060,23110,23880,24460,24850,27450,28020,27050,28400,29770,30070,29720,30150,29450,30140,29780,30000,1221600
WTK0111,ECNZ,GG,ECNZ,kWh,I,F,01/04/1999,29880,29810,29990,29610,27400,27340,27270,24650,24950,24840,24770,24770,25040,24960,24990,24600,24730,24470,22420,21760,22050,23250,22360,20180,19150,19880,20090,19920,20390,19850,19660,20220,20080,20530,19100,19480,21970,22480,21710,22660,21950,22760,22190,22770,22130,22350,22940,22280,1112630
WTK0111,MERI,GG,MERI,kWh,I,F,02/04/1999,24320,24550,24840,24700,22370,22700,20800,19960,19790,19870,20030,19940,19990,19760,20050,19890,19830,19540,19610,20190,22550,22710,23550,24390,25040,27460,27400,27350,27090,27510,27400,27490,27630,27240,27110,27070,27770,27120,27210,29390,30340,29590,29640,30210,29650,30030,27540,27150,1187360
WTK0111,MERI,GG,MERI,kWh,I,F,03/04/1999,24630,24450,23150,22160,22530,22440,19710,19660,19780,19930,20250,20070,19890,19710,19810,20010,20200,19790,19870,19470,20030,20240,19450,19540,20250,20060,19920,19580,19920,19950,19900,20090,20140,19980,21700,22280,23750,24770,24410,24990,24600,24690,22800,22680,22170,22740,22500,22360,1023000
WTK0111,MERI,GG,MERI,kWh,I,F,04/04/1999,19810,19380,19840,20380,19850,19890,19820,19810,19990,20070,19800,19830,19960,19910,19720,20250,20040,19780,19620,19570,19630,20110,20070,19710,19920,19780,17700,17240,17120,15170,15010,15000,15080,14790,14770,15090,15110,16850,17190,17410,17330,17320,17630,17350,17290,17070,17190,17050,878300
WTK0111,MERI,GG,MERI,kWh,I,F,05/04/1999,16810,17260,16850,16770,17000,16910,17040,17030,16890,16820,16940,16830,16700,16810,16840,16720,16710,16760,16810,16710,16750,16790,17080,16890,16680,17050,16870,16790,16780,16860,16780,16900,16980,16780,16880,16750,17150,16800,16840,16990,16930,17070,17070,19440,19430,19390,19640,19350,822920
WTK0111,MERI,GG,MERI,kWh,I,F,06/04/1999,19440,19250,19450,19180,19470,19210,19310,19160,19300,19080,19190,19190,19150,18890,19230,19070,18880,19150,18990,18960,19530,21290,21500,21490,21440,21600,21790,21500,21650,21550,21610,21770,21560,21570,22360,24370,24300,24300,25870,26520,26730,26830,27390,29380,29320,29100,29270,29270,1058410
WTK0111,MERI,GG,MERI,kWh,I,F,07/04/1999,29300,29050,28980,29100,29090,28840,28900,29220,28550,28710,28970,28790,28700,28460,28410,28730,28780,28620,29200,30780,31350,32470,32880,32160,31820,32240,32260,32340,32390,32480,32730,34310,35100,34690,35270,35320,35750,34680,34940,35450,35490,35090,35150,36160,34780,35470,35440,34800,1532190
WTK0111,MERI,GG,MERI,kWh,I,F,08/04/1999,32700,32350,32350,31720,30450,30210,27850,27500,26040,24430,25280,24640,25230,25350,27480,27180,27560,27100,27100,27450,27480,27450,27410,27010,27260,27630,27110,27350,27180,27390,26060,24670,24810,25160,24930,22580,22090,22510,22150,21810,22710,24400,25050,24760,24600,24060,22330,22600,1260520
WTK0111,MERI,GG,MERI,kWh,I,F,09/04/1999,22430,21790,23110,21910,22350,22560,22700,22170,22310,22140,22840,22480,22590,22280,22370,22370,22330,22260,21950,22480,22470,22320,22450,22340,22590,22400,22310,22630,22580,22200,22290,22600,22340,22510,22520,22230,22190,22400,22490,23020,24720,24610,26760,27910,27400,28410,28790,28680,1113580
WTK0111,MERI,GG,MERI,kWh,I,F,10/04/1999,28650,27810,26770,26540,25480,25890,26020,25960,25560,24070,23570,23100,23620,23170,23560,23320,23170,23900,23360,25230,24410,24810,24670,25540,24790,24510,25230,24560,24520,23000,22210,22490,22530,20170,19840,20100,19910,21190,21870,21420,22150,22240,22040,22710,22250,22260,22200,22130,1134500
WTK0111,MERI,GG,MERI,kWh,I,F,11/04/1999,22210,22100,19410,19610,19760,19590,19520,20060,19780,19520,19250,19460,19480,19990,19730,19540,19830,19430,19820,19130,19590,19490,19770,19430,19630,19480,19740,19760,19860,19630,19630,19710,19990,19560,19490,19630,19630,19680,19300,20530,22240,22050,24140,25080,24380,24750,24540,24880,982810
WTK0111,MERI,GG,MERI,kWh,I,F,12/04/1999,25060,26870,26970,26970,27100,26980,26970,26890,27190,27140,26630,27190,26800,26670,27000,26640,26590,26620,26910,26780,26070,27060,27110,26860,26270,25300,24620,24360,22930,21630,21630,22180,22020,21860,21570,21230,21980,22120,21870,21880,22110,21930,24520,24340,26240,27020,26920,26770,1206370
WTK0111,MERI,GG,MERI,kWh,I,F,13/04/1999,26960,27140,29360,29400,29510,29150,29260,29040,29700,29240,28940,29000,26770,26440,26800,26830,29140,29390,29610,29350,30300,27980,27300,26920,27100,27920,27570,27050,27390,27370,26850,27260,28400,27360,27850,27200,27310,28380,29800,29930,29720,29770,30210,29800,29590,29810,29660,28220,1365050
WTK0111,MERI,GG,MERI,kWh,I,F,14/04/1999,27460,27330,24860,24880,24780,24310,22730,22480,22280,22370,22460,22290,22510,22370,22550,22380,22340,22140,22200,22400,22390,22480,22320,22370,22140,22220,22680,21990,22300,22580,22440,22290,22580,22700,22450,22400,22470,22060,22650,22160,22210,22580,24850,25100,24690,24930,24890,24940,1108980
WTK0111,MERI,GG,MERI,kWh,I,F,15/04/1999,24880,24640,24920,24850,25200,24690,24890,24770,24830,25070,24740,24770,25240,25050,24000,22450,22600,25030,24790,24530,24720,24850,25210,24570,24630,25120,25200,24710,24580,25010,23640,22400,22810,22350,22180,22530,21840,20700,20260,19910,19530,20440,20500,22470,22030,22820,21950,22580,1131480
WTK0111,MERI,GG,MERI,kWh,I,F,16/04/1999,22260,22270,22610,22240,22530,22410,22520,22340,22430,22240,22530,22400,22760,22140,23940,25060,26380,26910,27600,29590,30280,29640,29860,29670,30010,30080,30090,29550,29520,29880,29670,30220,30220,29890,29820,29850,29550,29900,29850,29810,29530,29840,29750,30350,29610,29750,29670,28050,1307070
WTK0111,MERI,GG,MERI,kWh,I,F,17/04/1999,27240,27340,27100,27510,27530,27440,27540,27290,27170,27360,27620,27320,27420,27160,27450,27410,27550,27280,27480,27510,27170,27160,27340,27250,27330,26240,24820,24840,25030,24880,24880,25170,25050,24430,24980,24780,24990,24680,24970,25050,22810,22050,22610,20840,19600,20460,19400,19990,1226520
WTK0111,MERI,GG,MERI,kWh,I,F,18/04/1999,20240,19400,20120,19870,19930,19900,19650,19910,19970,20010,20080,19720,19830,19840,19860,18520,18130,17930,18030,17600,17870,17700,17720,17630,18740,17580,17270,17770,18200,17970,17870,17670,17840,18080,18150,17830,17650,17990,17820,19940,19710,19910,19840,20010,19740,20090,19820,20250,907200
WTK0111,MERI,GG,MERI,kWh,I,F,19/04/1999,19660,19780,19860,20100,20150,19450,19710,20080,20210,19600,20090,19720,19880,19880,20780,20920,22120,23760,24910,26130,27070,28000,28600,28370,29750,29720,30140,29640,30040,29870,29720,30410,29400,30300,29820,29650,30110,29940,29860,29900,29380,29630,30480,29030,29960,30170,29930,30180,1245860
WTK0111,MERI,GG,MERI,kWh,I,F,20/04/1999,29840,27260,27340,27470,27420,24640,24960,24810,25350,24770,24670,24960,25060,26660,27170,26900,27510,27560,28050,29690,30090,30090,29430,29780,29850,29850,29620,29880,29680,30160,29930,29650,29730,30050,29750,29960,29730,29610,30010,29820,29240,27270,26300,25140,24810,25020,24850,25010,1336400
WTK0111,MERI,GG,MERI,kWh,I,F,21/04/1999,24860,24690,24820,24980,24900,24960,24710,25020,24840,24700,24520,25210,25160,24580,24990,24630,24940,24750,24940,24710,25220,24750,24670,25230,24480,24850,25070,24630,24780,25300,24420,25140,24660,24930,25060,24830,24850,24630,24340,25000,24210,25100,24870,25280,24670,25320,25070,24330,1192600
WTK0111,MERI,GG,MERI,kWh,I,F,22/04/1999,25300,24180,24980,25320,24630,24990,25340,24290,24740,25390,25020,25310,25380,24280,24650,24710,27390,27240,27220,27270,27170,27650,27250,27300,27130,27400,27610,27040,27600,27210,27470,27720,27490,26740,24420,24830,24500,24880,24890,24030,25110,25620,24270,22440,21910,20510,19790,19850,1217460
WTK0111,MERI,GG,MERI,kWh,I,F,23/04/1999,19660,19510,19730,19920,19780,20280,19460,20110,20690,20010,20050,20100,19630,19200,20070,20070,19740,19830,20340,19590,19510,20240,20100,20150,19370,20260,20790,20410,19700,19520,19770,17860,20050,22200,22880,23470,24310,24540,24550,25020,24830,24680,25870,27540,26050,25520,23830,21890,1022680
WTK0111,MERI,GG,MERI,kWh,I,F,24/04/1999,22080,22340,22330,22000,19950,19760,18030,17120,17550,17440,17530,17470,17350,17330,17140,17640,17690,17230,18730,20190,19670,19780,20330,19300,20020,19760,19670,20010,19990,19960,19950,19920,20060,19930,19850,17610,17580,17300,17370,17320,17230,17710,17230,17840,17110,17560,17360,17260,901580
WTK0111,MERI,GG,MERI,kWh,I,F,25/04/1999,17340,17210,17360,17230,17300,17430,17590,17360,17490,17460,17360,17930,17230,17540,17150,19460,20110,20010,19710,19740,19960,19710,20000,19440,19820,20430,19990,19580,20110,19730,19710,20210,20440,21720,22460,21930,22330,22540,22270,22570,22190,22170,22330,22450,22270,22850,22010,22520,953750
WTK0111,MERI,GG,MERI,kWh,I,F,26/04/1999,22450,22030,22300,22770,22290,22150,22400,22710,22320,22460,22220,22320,22480,22490,22440,23670,25100,25910,26990,27080,28720,30270,30050,29440,29730,30350,30080,29600,29530,30230,30140,29870,29670,29580,30220,29800,29840,29840,29720,29780,29960,29840,29970,30120,29590,29960,29700,30020,1300200
WTK0111,MERI,GG,MERI,kWh,I,F,27/04/1999,29910,29610,30010,29810,29940,30030,29620,30050,30020,30080,29750,29720,30020,29800,29670,29940,29800,29540,29870,32110,32330,32540,32360,32510,32130,32260,32890,32170,32070,32280,32420,32690,32300,32310,32630,32420,31900,32410,32300,32260,32560,32120,29290,29710,27460,27470,27760,27510,1480360
WTK0111,MERI,GG,MERI,kWh,I,F,28/04/1999,27130,26920,27420,27230,27840,27420,28020,27410,27380,27420,29070,29880,31560,31900,32350,32380,32130,34290,34710,34850,34780,34450,32300,32600,32070,31810,29940,30350,29600,30240,29870,29950,29640,30490,29990,29780,29150,29730,29390,29800,30220,29690,29950,30350,29750,30030,29550,28040,1450820
WTK0111,MERI,GG,MERI,kWh,I,F,29/04/1999,27300,26630,25240,24890,24640,24780,25020,24600,24650,25480,24880,24820,24890,25240,25080,24190,24960,24820,24730,24980,25440,25160,24820,24210,23120,22550,22470,20120,20040,19830,20070,19810,19710,20000,22170,22420,24140,25020,24860,24720,25000,24890,24770,25130,24710,25150,24780,25080,1152010
WTK0111,MERI,GG,MERI,kWh,I,F,30/04/1999,24610,24830,25160,24530,24770,25110,25140,25700,27320,27300,27410,27350,27100,26950,27430,27090,27100,27500,27720,27100,27590,27260,27400,27580,27000,27850,27310,27150,26970,27560,27840,27300,27380,27920,29840,29890,29740,29780,29690,29840,30070,29680,30090,29670,29790,28130,26870,27520,1321930
WTK0111,MERI,GG,MERI,kWh,I,F,01/05/1999,27280,27460,27260,27300,27210,25970,25100,25100,24650,25220,25200,24540,22560,22390,22540,22120,23630,24980,25760,27510,27240,27210,27440,27280,27170,27700,29480,29700,29240,29840,30310,30070,30200,29740,29610,29700,29730,29860,29740,29600,27710,27490,28080,27470,27560,25140,24780,22260,1295130
WTK0111,MERI,GG,MERI,kWh,I,F,02/05/1999,22280,22120,22250,22360,19760,20140,20090,19830,19950,19940,19450,19750,19840,19580,20340,22100,22370,22160,22320,21860,22330,21790,22590,22140,22130,22130,22150,22300,22340,22100,20500,19650,19990,19610,19800,19480,19700,19830,20010,19560,19860,20170,19530,19950,20080,19450,20110,20000,997770
WTK0111,MERI,GG,MERI,kWh,I,F,03/05/1999,19850,19540,19830,20380,19980,19810,19940,19860,19530,20090,20000,19450,19810,20000,22190,21890,24360,24530,25840,27330,29330,29690,29920,29720,29720,29770,29960,29940,29680,29720,29840,30070,29590,30070,29780,29800,29710,29720,29800,29340,29590,29630,30630,30550,29410,29220,30180,29390,1257980
WTK0111,MERI,GG,MERI,kWh,I,F,04/05/1999,29550,29750,29650,30070,29860,30270,29890,29900,30060,29780,30030,29440,29760,29780,29740,29770,29810,29770,29470,30030,29960,29730,30020,29640,29690,29700,29860,29770,30050,29550,29910,30020,29800,29820,29880,29600,29690,29910,29970,30070,29340,29850,30160,29820,29720,29650,29750,30050,1431360
WTK0111,MERI,GG,MERI,kWh,I,F,05/05/1999,30120,27280,27290,27120,24670,24830,24940,25180,25250,24780,24880,24740,24780,25080,24670,25070,24860,24680,24870,24490,25160,25530,25200,27330,27410,29790,30060,29900,29900,29580,30050,29830,31240,32430,33030,34740,35140,36930,37410,37540,37040,36950,37190,37270,37220,37660,37520,37920,1426550
WTK0111,MERI,GG,MERI,kWh,I,F,06/05/1999,36680,36900,37020,37430,37110,37370,37320,37560,37470,37290,37560,37140,37300,37080,38360,37670,36870,36330,37350,37160,39840,40280,40140,40240,38930,39970,40060,40050,39700,38950,39010,40050,37120,37490,37330,38160,37430,36590,37320,37010,37050,37070,37340,37300,37750,37590,36970,37210,1818920
WTK0111,MERI,GG,MERI,kWh,I,F,07/05/1999,37160,37690,37100,37030,37530,37620,37200,37090,37030,37380,37220,37330,36900,35660,34570,34780,34810,34640,34520,34680,34980,35320,35240,34490,34150,34520,34700,34710,34920,34810,32630,32820,31610,29830,29560,30210,29860,29330,29670,30010,30160,30070,30280,29720,29550,30040,31340,32370,1624840
WTK0111,MERI,GG,MERI,kWh,I,F,08/05/1999,32230,32300,32790,35260,34750,34750,34810,34710,34770,34230,33000,32160,30660,30160,30090,29890,31790,31980,32310,31950,32000,32920,32410,31950,32780,32440,31970,32160,32480,32250,32700,32780,32120,32590,32260,31890,32280,32600,31960,32420,32900,31030,30220,29580,29990,30160,28820,27450,1541700
WTK0111,MERI,GG,MERI,kWh,I,F,09/05/1999,27200,27810,27250,27420,27550,27620,27280,26750,24620,25210,25370,25110,24610,24980,24720,25390,24950,24660,24930,24550,24380,24840,25250,26100,26720,27670,27440,27300,27010,27940,28020,27530,27330,27210,27380,26970,27020,27240,27780,27500,27240,27640,27320,26920,27650,27360,27290,27430,1275460